Location: Bacea
(45.9500°N, 22.6667°E)
Time: 23:21:25
(UTC+00:00)

Cosmos 1953 - Pass Details

Date: 30 May 2022
Orbit: 533 x 555 km, 82.5° (Epoch: 01 July)

Event Time Altitude Azimuth Distance (km) Brightness Sun altitude
Rises 21:39:11 0° 2° (N) 2,722 7.3 -21.3°
Reaches altitude 10° 21:41:41 10° 16° (NNE) 1,819 5.8 -21.4°
Maximum altitude 21:44:59 24° 72° (ENE) 1,137 4.0 -21.5°
Enters shadow 21:45:38 23° 88° (E) 1,168 3.9 -21.5°
